| time (UTC) | temp F | wind direction | speed knots | gust knots | rain 1hr in | rain 24hr in | rain mn in | humidity % | barometer mb |
| 20260504110551 | 44 | 242 | 0.0 | 0.0 | 0.00 | 0.03 | 0.03 | 95 | 1012.5 |
| 20260504100544 | 43 | 242 | 0.0 | 0.0 | 0.00 | 0.03 | 0.03 | 95 | 1012.6 |
| 20260504081535 | 45 | 242 | 0.0 | 0.0 | 0.00 | 0.03 | 0.03 | 94 | 1013.4 |
| 20260504081032 | 45 | 242 | 0.0 | 0.0 | 0.00 | 0.03 | 0.03 | 94 | 1013.4 |
| 20260504080534 | 45 | 242 | 0.0 | 0.0 | 0.00 | 0.03 | 0.03 | 94 | 1013.4 |
| 20260504050512 | 48 | 242 | 0.0 | 0.0 | 0.03 | 0.03 | 0.03 | 91 | 1014.9 |
| 20260504050012 | 48 | 242 | 0.0 | 0.0 | 0.03 | 0.03 | 0.03 | 91 | 1015.0 |
| 20260504045511 | 48 | 242 | 0.0 | 0.0 | 0.03 | 0.03 | 0.03 | 91 | 1015.0 |
| 20260504045011 | 48 | 260 | 0.0 | 0.0 | 0.03 | 0.03 | 0.03 | 90 | 1015.1 |
| 20260504044516 | 48 | 260 | 0.0 | 0.0 | 0.03 | 0.03 | 0.03 | 90 | 1015.1 |
| 20260504044010 | 48 | 260 | 0.0 | 0.0 | 0.03 | 0.03 | 0.03 | 90 | 1015.0 |
| 20260504043511 | 48 | 260 | 0.0 | 0.0 | 0.03 | 0.03 | 0.03 | 89 | 1014.9 |
| 20260504043013 | 48 | 260 | 0.0 | 0.0 | 0.03 | 0.03 | 0.03 | 87 | 1014.9 |
| 20260504042508 | 48 | 260 | 0.0 | 0.0 | 0.02 | 0.02 | 0.02 | 86 | 1015.2 |
| 20260504042008 | 48 | 260 | 0.0 | 0.0 | 0.02 | 0.02 | 0.02 | 84 | 1015.1 |
| 20260504041520 | 49 | 260 | 0.0 | 0.0 | 0.01 | 0.01 | 0.01 | 82 | 1015.2 |
| 20260504041005 | 49 | 260 | 0.0 | 0.0 | 0.01 | 0.01 | 0.01 | 79 | 1015.2 |
| 20260504040505 | 50 | 260 | 0.0 | 0.0 | 0.00 | 0.00 | 0.00 | 77 | 1015.2 |
| 20260504040002 | 51 | 260 | 0.0 | 0.0 | 0.00 | 0.00 | 0.00 | 74 | 1015.1 |
| 20260504035502 | 51 | 260 | 0.0 | 0.0 | 0.00 | 0.00 | 0.00 | 72 | 1015.2 |
| 20260504035001 | 51 | 261 | 0.0 | 0.0 | 0.00 | 0.00 | 0.00 | 70 | 1015.1 |
| 20260504034501 | 51 | 261 | 0.0 | 0.0 | 0.00 | 0.00 | 0.00 | 71 | 1015.0 |
| 20260504034002 | 50 | 260 | 0.0 | 0.0 | 0.00 | 0.00 | 0.00 | 72 | 1014.9 |
| 20260504033501 | 51 | 260 | 0.0 | 0.0 | 0.00 | 0.00 | 0.00 | 71 | 1014.9 |
| 20260504033001 | 51 | 260 | 0.0 | 0.0 | 0.00 | 0.00 | 0.00 | 70 | 1014.8 |
| 20260504032502 | 51 | 260 | 0.0 | 0.0 | 0.00 | 0.00 | 0.00 | 70 | 1014.9 |
| 20260504032002 | 50 | 260 | 0.0 | 0.0 | 0.00 | 0.00 | 0.00 | 69 | 1014.8 |
| 20260504031601 | 50 | 260 | 0.0 | 0.0 | 0.00 | 0.00 | 0.00 | 70 | 1014.7 |
| 20260504031100 | 51 | 260 | 0.0 | 0.0 | 0.00 | 0.00 | 0.00 | 69 | 1014.8 |
| 20260504030600 | 51 | 260 | 0.0 | 0.0 | 0.00 | 0.00 | 0.00 | 69 | 1014.8 |
| 20260504030100 | 51 | 260 | 0.0 | 0.0 | 0.00 | 0.00 | 0.00 | 69 | 1014.8 |
| 20260504025600 | 51 | 260 | 0.0 | 0.0 | 0.00 | 0.00 | 0.00 | 68 | 1014.8 |
| 20260504025100 | 51 | 275 | 0.0 | 0.0 | 0.00 | 0.00 | 0.00 | 67 | 1014.9 |
| 20260504024600 | 51 | 171 | 0.0 | 0.0 | 0.00 | 0.00 | 0.00 | 66 | 1014.9 |
| 20260504024059 | 51 | 171 | 0.0 | 0.0 | 0.00 | 0.00 | 0.00 | 66 | 1014.9 |
| 20260504023600 | 51 | 171 | 0.0 | 0.0 | 0.00 | 0.00 | 0.00 | 67 | 1014.9 |
| 20260504023100 | 51 | 171 | 0.0 | 0.0 | 0.00 | 0.00 | 0.00 | 68 | 1014.8 |
| 20260504022559 | 51 | 171 | 0.0 | 0.0 | 0.00 | 0.00 | 0.00 | 66 | 1014.8 |
| 20260504022058 | 51 | 171 | 0.0 | 0.0 | 0.00 | 0.00 | 0.00 | 66 | 1014.7 |
| 20260504021559 | 51 | 171 | 0.0 | 0.0 | 0.00 | 0.00 | 0.00 | 65 | 1014.7 |
| 20260504021101 | 51 | 171 | 0.0 | 0.0 | 0.00 | 0.00 | 0.00 | 66 | 1014.4 |
| 20260504020558 | 51 | 171 | 0.0 | 0.0 | 0.00 | 0.00 | 0.00 | 66 | 1014.3 |
| 20260504020129 | 51 | 171 | 0.0 | 0.0 | 0.00 | 0.00 | 0.00 | 65 | 1014.3 |
| 20260504015558 | 51 | 171 | 0.0 | 0.0 | 0.00 | 0.00 | 0.00 | 66 | 1014.4 |
| 20260504015058 | 51 | 171 | 0.0 | 0.0 | 0.00 | 0.00 | 0.00 | 64 | 1014.4 |
| 20260504014602 | 52 | 171 | 0.0 | 0.0 | 0.00 | 0.00 | 0.00 | 64 | 1014.3 |
| 20260504014057 | 51 | 171 | 0.0 | 0.0 | 0.00 | 0.00 | 0.00 | 65 | 1014.3 |
| 20260504013601 | 51 | 171 | 0.0 | 0.0 | 0.00 | 0.00 | 0.00 | 63 | 1014.3 |
| 20260504013123 | 51 | 171 | 0.0 | 0.0 | 0.00 | 0.00 | 0.00 | 63 | 1014.3 |
| 20260504012558 | 51 | 171 | 0.0 | 0.0 | 0.00 | 0.00 | 0.00 | 63 | 1014.4 |
| 20260504012058 | 51 | 171 | 0.0 | 0.0 | 0.00 | 0.00 | 0.00 | 64 | 1014.4 |
| 20260504011557 | 52 | 171 | 0.0 | 0.0 | 0.00 | 0.00 | 0.00 | 64 | 1014.4 |
| 20260504011056 | 52 | 171 | 0.0 | 0.0 | 0.00 | 0.00 | 0.00 | 62 | 1014.3 |
| 20260504010556 | 52 | 171 | 0.0 | 0.0 | 0.00 | 0.00 | 0.00 | 61 | 1014.4 |
| 20260504010100 | 52 | 171 | 0.0 | 0.0 | 0.00 | 0.00 | 0.00 | 60 | 1014.6 |
| 20260504005556 | 52 | 171 | 0.0 | 0.0 | 0.00 | 0.00 | 0.00 | 59 | 1014.6 |
| 20260504005056 | 52 | 171 | 0.0 | 0.0 | 0.00 | 0.00 | 0.00 | 60 | 1014.5 |
| 20260504004556 | 52 | 171 | 0.0 | 0.0 | 0.00 | 0.00 | 0.00 | 61 | 1014.4 |
| 20260504004056 | 52 | 171 | 0.0 | 0.0 | 0.00 | 0.00 | 0.00 | 60 | 1014.5 |
| 20260504003556 | 53 | 171 | 0.0 | 0.0 | 0.00 | 0.00 | 0.00 | 59 | 1014.5 |
| 20260504003056 | 53 | 171 | 0.0 | 0.0 | 0.00 | 0.00 | 0.00 | 57 | 1014.3 |
| 20260504002556 | 54 | 171 | 0.0 | 0.0 | 0.00 | 0.00 | 0.00 | 57 | 1014.3 |
| 20260504002056 | 54 | 171 | 0.0 | 0.0 | 0.00 | 0.00 | 0.00 | 56 | 1014.3 |
| 20260504001555 | 55 | 171 | 0.0 | 0.0 | 0.00 | 0.00 | 0.00 | 55 | 1014.4 |
| 20260504001054 | 55 | 171 | 0.0 | 0.0 | 0.00 | 0.00 | 0.00 | 55 | 1014.3 |
| 20260504000556 | 55 | 171 | 0.0 | 0.0 | 0.00 | 0.00 | 0.00 | 55 | 1014.2 |
| 20260504000058 | 56 | 171 | 0.0 | 0.0 | 0.00 | 0.00 | 0.00 | 55 | 1014.4 |
| 20260503235554 | 56 | 171 | 0.0 | 0.0 | 0.00 | 0.00 | 0.00 | 55 | 1014.3 |
| 20260503235054 | 57 | 171 | 0.0 | 0.0 | 0.00 | 0.00 | 0.00 | 52 | 1014.2 |
| 20260503234554 | 58 | 171 | 0.0 | 0.0 | 0.00 | 0.00 | 0.00 | 52 | 1014.2 |
| 20260503234054 | 58 | 171 | 0.0 | 0.0 | 0.00 | 0.00 | 0.00 | 52 | 1014.1 |
| 20260503233556 | 59 | 171 | 0.0 | 0.0 | 0.00 | 0.00 | 0.00 | 48 | 1014.1 |
| 20260503233054 | 60 | 171 | 0.0 | 0.9 | 0.00 | 0.00 | 0.00 | 44 | 1014.3 |
| 20260503232553 | 60 | 171 | 0.0 | 0.9 | 0.00 | 0.00 | 0.00 | 42 | 1014.3 |
| 20260503232052 | 61 | 269 | 0.0 | 0.0 | 0.00 | 0.00 | 0.00 | 42 | 1014.4 |
| 20260503231551 | 62 | 270 | 0.0 | 0.9 | 0.00 | 0.00 | 0.00 | 37 | 1014.4 |
| 20260503231054 | 62 | 265 | 0.0 | 0.9 | 0.00 | 0.00 | 0.00 | 34 | 1014.6 |
| 20260503230552 | 62 | 265 | 0.0 | 3.5 | 0.00 | 0.00 | 0.00 | 33 | 1014.6 |
| 20260503230049 | 63 | 263 | 0.9 | 3.5 | 0.00 | 0.00 | 0.00 | 34 | 1014.8 |
| 20260503225551 | 63 | 317 | 0.0 | 2.6 | 0.00 | 0.00 | 0.00 | 35 | 1014.9 |
| 20260503225049 | 63 | 175 | 0.0 | 4.3 | 0.00 | 0.00 | 0.00 | 35 | 1014.8 |
| 20260503224558 | 63 | 290 | 0.0 | 4.3 | 0.00 | 0.00 | 0.00 | 35 | 1014.8 |
| 20260503224050 | 63 | 159 | 0.9 | 3.5 | 0.00 | 0.00 | 0.00 | 35 | 1014.8 |
| 20260503223549 | 63 | 149 | 0.0 | 2.6 | 0.00 | 0.00 | 0.00 | 35 | 1015.0 |
| 20260503223049 | 62 | 248 | 0.0 | 1.7 | 0.00 | 0.00 | 0.00 | 36 | 1015.1 |
| 20260503222548 | 63 | 261 | 0.0 | 2.6 | 0.00 | 0.00 | 0.00 | 34 | 1015.1 |
| 20260503222051 | 63 | 167 | 0.0 | 7.0 | 0.00 | 0.00 | 0.00 | 34 | 1015.1 |
| 20260503221558 | 63 | 144 | 0.9 | 7.0 | 0.00 | 0.00 | 0.00 | 36 | 1014.8 |
| 20260503221051 | 63 | 325 | 0.0 | 9.6 | 0.00 | 0.00 | 0.00 | 39 | 1015.0 |
| 20260503220547 | 63 | 190 | 0.0 | 6.1 | 0.00 | 0.00 | 0.00 | 33 | 1015.0 |
| 20260503220047 | 64 | 320 | 0.9 | 4.3 | 0.00 | 0.00 | 0.00 | 35 | 1015.1 |
| 20260503215548 | 63 | 196 | 0.0 | 0.9 | 0.00 | 0.00 | 0.00 | 34 | 1015.0 |
| 20260503215046 | 63 | 144 | 0.0 | 5.2 | 0.00 | 0.00 | 0.00 | 38 | 1015.0 |
| 20260503214546 | 63 | 224 | 0.0 | 4.3 | 0.00 | 0.00 | 0.00 | 35 | 1015.1 |
| 20260503214046 | 63 | 265 | 0.0 | 7.8 | 0.00 | 0.00 | 0.00 | 35 | 1015.1 |
| 20260503213546 | 62 | 281 | 1.7 | 7.8 | 0.00 | 0.00 | 0.00 | 36 | 1015.2 |
| 20260503213047 | 62 | 315 | 1.7 | 4.3 | 0.00 | 0.00 | 0.00 | 35 | 1015.1 |
| 20260503212546 | 63 | 161 | 0.9 | 4.3 | 0.00 | 0.00 | 0.00 | 37 | 1015.3 |
| 20260503212046 | 64 | 130 | 1.7 | 4.3 | 0.00 | 0.00 | 0.00 | 33 | 1015.0 |
| 20260503211544 | 64 | 36 | 0.0 | 2.6 | 0.00 | 0.00 | 0.00 | 39 | 1015.1 |
| 20260503211044 | 63 | 329 | 0.0 | 2.6 | 0.00 | 0.00 | 0.00 | 38 | 1015.1 |
| 20260503210544 | 63 | 264 | 0.0 | 6.1 | 0.00 | 0.00 | 0.00 | 41 | 1015.3 |
| 20260503210043 | 63 | 263 | 0.0 | 6.1 | 0.00 | 0.00 | 0.00 | 36 | 1015.4 |
| 20260503205542 | 63 | 226 | 0.0 | 4.3 | 0.00 | 0.00 | 0.00 | 34 | 1015.4 |
| 20260503205042 | 63 | 90 | 0.9 | 7.0 | 0.00 | 0.00 | 0.00 | 34 | 1015.4 |
| 20260503204549 | 63 | 151 | 0.9 | 7.0 | 0.00 | 0.00 | 0.00 | 37 | 1015.5 |
| 20260503204041 | 63 | 136 | 0.0 | 4.3 | 0.00 | 0.00 | 0.00 | 34 | 1015.5 |
| 20260503203540 | 63 | 179 | 0.9 | 4.3 | 0.00 | 0.00 | 0.00 | 34 | 1015.7 |
| 20260503203044 | 63 | 324 | 0.0 | 4.3 | 0.00 | 0.00 | 0.00 | 38 | 1015.7 |
| 20260503202539 | 62 | 101 | 0.0 | 2.6 | 0.00 | 0.00 | 0.00 | 39 | 1015.8 |
| 20260503202038 | 63 | 274 | 0.0 | 3.5 | 0.00 | 0.00 | 0.00 | 38 | 1015.9 |
| 20260503201537 | 62 | 243 | 0.9 | 4.3 | 0.00 | 0.00 | 0.00 | 37 | 1016.2 |
| 20260503201036 | 62 | 279 | 0.0 | 4.3 | 0.00 | 0.00 | 0.00 | 32 | 1016.1 |
| 20260503200536 | 62 | 309 | 0.0 | 5.2 | 0.00 | 0.00 | 0.00 | 39 | 1016.2 |
| 20260503200036 | 61 | 340 | 0.0 | 7.8 | 0.00 | 0.00 | 0.00 | 36 | 1016.3 |
| 20260503195536 | 62 | 313 | 2.6 | 7.8 | 0.00 | 0.00 | 0.00 | 37 | 1016.3 |
| 20260503195035 | 62 | 345 | 0.0 | 9.6 | 0.00 | 0.00 | 0.00 | 43 | 1016.6 |
| 20260503194538 | 62 | 355 | 1.7 | 9.6 | 0.00 | 0.00 | 0.00 | 36 | 1016.8 |
| 20260503194032 | 62 | 202 | 0.0 | 6.1 | 0.00 | 0.00 | 0.00 | 38 | 1016.8 |
| 20260503193532 | 62 | 234 | 0.0 | 6.1 | 0.00 | 0.00 | 0.00 | 38 | 1017.0 |
| 20260503193043 | 61 | 211 | 0.9 | 4.3 | 0.00 | 0.00 | 0.00 | 38 | 1017.0 |
| 20260503192530 | 61 | 161 | 0.9 | 5.2 | 0.00 | 0.00 | 0.00 | 39 | 1017.0 |
| 20260503192034 | 62 | 178 | 0.0 | 5.2 | 0.00 | 0.00 | 0.00 | 38 | 1017.2 |
| 20260503191559 | 62 | 315 | 0.0 | 7.8 | 0.00 | 0.00 | 0.00 | 37 | 1017.3 |
| 20260503191031 | 61 | 213 | 0.0 | 7.8 | 0.00 | 0.00 | 0.00 | 37 | 1017.3 |
| 20260503190532 | 61 | 329 | 0.0 | 3.5 | 0.00 | 0.00 | 0.00 | 41 | 1017.3 |
| 20260503190032 | 61 | 342 | 0.0 | 5.2 | 0.00 | 0.00 | 0.00 | 42 | 1017.4 |
| 20260503185530 | 61 | 26 | 0.9 | 5.2 | 0.00 | 0.00 | 0.00 | 37 | 1017.5 |
| 20260503185026 | 61 | 63 | 0.0 | 1.7 | 0.00 | 0.00 | 0.00 | 42 | 1017.7 |
| 20260503184526 | 62 | 294 | 0.0 | 5.2 | 0.00 | 0.00 | 0.00 | 37 | 1018.0 |
| 20260503184026 | 61 | 319 | 0.9 | 5.2 | 0.00 | 0.00 | 0.00 | 36 | 1018.0 |
| 20260503183530 | 61 | 31 | 0.0 | 4.3 | 0.00 | 0.00 | 0.00 | 45 | 1018.1 |
| 20260503183024 | 61 | 277 | 0.0 | 7.8 | 0.00 | 0.00 | 0.00 | 44 | 1018.2 |
| 20260503182524 | 60 | 319 | 2.6 | 7.8 | 0.00 | 0.00 | 0.00 | 37 | 1018.1 |
| 20260503182023 | 60 | 303 | 0.0 | 7.0 | 0.00 | 0.00 | 0.00 | 47 | 1018.2 |
| 20260503181527 | 60 | 313 | 0.0 | 6.1 | 0.00 | 0.00 | 0.00 | 42 | 1018.3 |
| 20260503181022 | 60 | 117 | 0.0 | 1.7 | 0.00 | 0.00 | 0.00 | 42 | 1018.4 |
| 20260503180521 | 60 | 169 | 0.0 | 1.7 | 0.00 | 0.00 | 0.00 | 44 | 1018.5 |
| 20260503180026 | 59 | 316 | 0.0 | 2.6 | 0.00 | 0.00 | 0.00 | 43 | 1018.6 |
| 20260503175520 | 59 | 227 | 0.0 | 2.6 | 0.00 | 0.00 | 0.00 | 40 | 1018.6 |
| 20260503175021 | 58 | 195 | 0.0 | 3.5 | 0.00 | 0.00 | 0.00 | 39 | 1018.7 |
| 20260503174520 | 58 | 234 | 0.0 | 7.0 | 0.00 | 0.00 | 0.00 | 40 | 1018.8 |
| 20260503174020 | 58 | 251 | 1.7 | 10.4 | 0.00 | 0.00 | 0.00 | 40 | 1018.8 |
| 20260503173520 | 59 | 338 | 4.3 | 10.4 | 0.00 | 0.00 | 0.00 | 44 | 1018.8 |
| 20260503173019 | 59 | 355 | 0.0 | 2.6 | 0.00 | 0.00 | 0.00 | 46 | 1018.9 |
| 20260503172520 | 58 | 244 | 0.0 | 2.6 | 0.00 | 0.00 | 0.00 | 39 | 1019.0 |
| 20260503172017 | 58 | 305 | 0.0 | 5.2 | 0.00 | 0.00 | 0.00 | 44 | 1018.9 |
| 20260503171517 | 58 | 318 | 0.9 | 7.8 | 0.00 | 0.00 | 0.00 | 41 | 1019.0 |
| 20260503171016 | 58 | 17 | 2.6 | 7.8 | 0.00 | 0.00 | 0.00 | 43 | 1019.1 |
| 20260503170515 | 58 | 302 | 0.0 | 7.0 | 0.00 | 0.00 | 0.00 | 45 | 1019.2 |
| 20260503150552 | 54 | 234 | 0.0 | 7.8 | 0.00 | 0.00 | 0.00 | 48 | 1020.4 |
| 20260503131022 | 45 | 34 | 0.0 | 1.7 | 0.00 | 0.00 | 0.00 | 79 | 1020.7 |
| 20260503130520 | 44 | 76 | 0.0 | 1.7 | 0.00 | 0.00 | 0.00 | 80 | 1020.8 |